Regional Weather Roundup
Issued by NWS

Home | Current Version | Previous Version | Text Only | Print | Product List | Glossary Off
Versions: 1 2 3 4 5 6 7 8 9 10 11 12 13 14 15 16 17 18 19 20 21 22 23 24 25 26 27 28 29 30 31 32 33 34 35 36 37 38 39 40 41 42 43 44 45 46 47 48 49 50

000
ASUS43 KMKX 290411
RWRWI

WISCONSIN REGIONAL WEATHER ROUNDUP
NATIONAL WEATHER SERVICE MILWAUKEE/SULLIVAN WI
1100 PM CDT FRI APR 28 2017

NOTE: "FAIR" INDICATES FEW OR NO CLOUDS BELOW 12,000 FEET WITH NO
SIGNIFICANT WEATHER AND/OR OBSTRUCTIONS TO VISIBILITY.

WIZ001-002-006>008-014>016-023>028-290500-
NORTHWEST WISCONSIN

CITY           SKY/WX    TMP DP  RH WIND       PRES   REMARKS
SUPERIOR ARPT  CLEAR     37  27  66 E6        30.17R WCI  33
ASHLAND        CLEAR     30  27  88 CALM      30.17R
HAYWARD        MOCLDY    37  27  67 NE9       30.13R WCI  30
SIREN          MOCLDY    43  26  50 CALM      30.12R
CUMBERLAND     PTCLDY    37  28  70 N7        30.10R WCI  32
RICE LAKE      PTCLDY    37  32  84 CALM      30.10R
CHETEK         PTCLDY    35  32  89 N3        30.08S
LADYSMITH      PTCLDY    36  32  84 NE5       30.10S WCI  32
EAU CLAIRE     PTCLDY    36  29  75 CALM      30.08S
MENOMONIE      CLEAR     38  31  76 CALM      30.09S
NEW RICHMOND   CLEAR     37  31  79 CALM      30.10S
OSCEOLA        PTCLDY    36  33  86 CALM      30.13R
$$

WIZ003>005-009-010-017-018-290500-
NORTH CENTRAL WISCONSIN

CITY           SKY/WX    TMP DP  RH WIND       PRES   REMARKS
MANITOWISH WTR NOT AVBL
ARBOR VITAE    PTCLDY    32  27  82 N6        30.10R WCI  26
WOODRUFF       PTCLDY    32  27  82 N6        30.10R WCI  26
RHINELANDER    PTCLDY    35  28  75 N6        30.10R WCI  30
EAGLE RIVER    PTCLDY    31  24  77 N6        30.10R WCI  25
LAND O LAKES   PTCLDY    31  27  86 CALM      30.12R
PHILLIPS       CLOUDY    34  29  81 N9        30.10R WCI  26
TOMAHAWK       PTCLDY    30  28  93 NW3       30.09R
MEDFORD        CLEAR     34  31  87 N3        30.06F
MERRILL        CLOUDY    32  31  96 CALM      30.09R
$$

WIZ029-030-035-036-043>047-290500-
CENTRAL WISCONSIN

CITY           SKY/WX    TMP DP  RH WIND       PRES   REMARKS
WAUSAU         CLOUDY    39  29  67 NE3       30.07R
MOSINEE        CLOUDY    37  30  75 NE5       30.08R WCI  34
MARSHFIELD     CLOUDY    41  29  62 NE6       30.05S
STEVENS POINT  CLOUDY    40  29  65 N7        30.08R
WAUPACA        CLOUDY    47  33  57 N8        30.08R
WAUTOMA        CLOUDY    45  35  68 N6        30.07R
WISC RAPIDS    CLOUDY    44  32  62 N9        30.07R
CAMP DOUGLAS   CLOUDY    44  35  68 N3        30.06R
$$

WIZ011>013-019>022-031-037>040-048>050-290500-
NORTHEAST WISCONSIN

CITY           SKY/WX    TMP DP  RH WIND       PRES   REMARKS
ANTIGO         CLOUDY    33  30  88 N3        30.08R
SHAWANO        CLOUDY    45  32  60 N8        30.09R
OCONTO         CLOUDY    43  31  62 N9        30.08R
STURGEON BAY   CLOUDY    43  34  70 N7        30.08R
GREEN BAY      CLOUDY    47  34  60 N16       30.07R
MANITOWOC      CLOUDY    42  40  92 CALM      30.06R
APPLETON       CLOUDY    46  32  57 N8        30.04R
CLINTONVILLE   CLOUDY    45  30  57 N8        30.08R
OSHKOSH        CLOUDY    46  36  68 N9        30.05R
$$

WIZ032>034-041-042-053>061-290500-
SOUTHWEST WISCONSIN

CITY           SKY/WX    TMP DP  RH WIND       PRES   REMARKS
LA CROSSE      CLOUDY    46  33  60 N6        30.06S
SPARTA         CLOUDY    43  35  72 CALM      30.07S
VIROQUA        CLOUDY    42  36  78 N7        30.04F
BOSCOBEL       CLOUDY    46  40  79 CALM      30.06R
PRAIRIE DU CHI CLOUDY    45  38  77 CALM      30.05R
PLATTEVILLE    CLOUDY    45  42  91 NE10      30.03S
$$

WIZ056-057-062-063-064-067-068-290500-
SOUTH CENTRAL WISCONSIN

CITY           SKY/WX    TMP DP  RH WIND       PRES   REMARKS
REEDSBURG      NOT AVBL
BARABOO/DELLS  CLOUDY    43  39  85 CALM      30.06R
LONE ROCK      CLOUDY    46  39  76 CALM      30.06R
MINERAL POINT  CLOUDY    45  41  87 N9        30.04R
MADISON        CLOUDY    45  40  82 N6        30.04R
MIDDLETON      CLOUDY    46  41  85 NE5       30.05S
WATERTOWN      CLOUDY    45  45 100 N5        30.03R
MONROE         CLOUDY    43  41  93 N15       30.02R
JANESVILLE     CLOUDY    46  45  93 N8        30.02R
$$

WIZ051-052-058>065-066-070>072-290500-
SOUTHEAST WISCONSIN

CITY           SKY/WX    TMP DP  RH WIND       PRES   REMARKS
MILWAUKEE      CLOUDY    45  42  89 NE7       30.02R
WAUKESHA       CLOUDY    43  41  93 N7        30.03R
MILWAUKEE/TIMM CLOUDY    43  39  87 N3        30.03R
RACINE         CLOUDY    42  38  85 N10       30.04R
KENOSHA        CLOUDY    46  41  82 NE7       30.02R
FOND DU LAC    CLOUDY    47  37  68 N6        30.05R
SHEBOYGAN      LGT RAIN  43  40  89 CALM      30.04R FOG
WEST BEND      CLOUDY    43  43 100 NW3       30.04R FOG
JUNEAU         CLOUDY    44  41  89 CALM      30.05R
$$

LSZ147-162-290500-
LAKE SUPERIOR

STATION/POSITION TIME  TEMP    WIND        PRES    WAVE
                       AIR SEA DIR/SP/G            HT/PER
                 (UTC) (F)     (DEG/KT/KT) (MB)    (FT/S)
DEVILS ISLAND    0400   39     330/  6/  6 1021.9R
PORT WING        0340   36     150/  2/  3 1021.3R
SAXON HARBOR     0340   32     200/  2/  3 1021.0R
$$

LMZ867-665-643>646-290500-
LAKE MICHIGAN

STATION/POSITION TIME  TEMP    WIND        PRES    WAVE
                       AIR SEA DIR/SP/G            HT/PER
                 (UTC) (F)     (DEG/KT/KT) (MB)    (FT/S)
CHAMBERS ISLAND  0340   41     320/  7/  9 1018.3R
N MID LAKE BUOY  0350   38 37  310/  4/  6 1019.8R   1/ 4
NORTHPORT PIER   0330   40     340/  8/ 12 1018.3R
SISTER BAY       0151   40        CALM       N/A
KEWAUNEE LAKESHO 0348   44     360/  7/ 10 1017.5R
SHEBOYGAN LAKESH 0400   41     340/  5/  5 1017.8R
PORT WASHINGTON  0340   43     340/  4/  6 1017.6S
MILWAUKEE LAKESH 0350   43     360/  8/ 10   N/A
S MID LAKE BUOY  0250   43 41   10/ 14/ 16 1015.6R   1
KENOSHA   LAKESH 0400   42      20/ 17/ 18 1016.3
$$

TC  - TEMPERATURE IN CELSIUS
VSB - VISIBILITY IN STATUTE MILES
WCI - WIND CHILL INDEX
HX  - HEAT INDEX





USA.gov is the U.S. government's official web portal to all federal, state and local government web resources and services.